Location: Владивосток
(43.1151°N, 131.8856°E)
Time: 11:47:39
(UTC+10:00)

EO-88 - Visible Passes

Search period start: 30 June 2022 00:00
Search period end: 10 July 2022 00:00
Orbit: 457 x 464 km, 97.3° (Epoch: 29 June)

Date Brightness Start Highest point End Pass type
(mag) Time Alt. Az. Time Alt. Az. Time Alt. Az.
30 Jun ? 21:32:12 10° E 21:33:55 13° ENE 21:35:38 10° NE visible
30 Jun ? 23:04:56 23° SSW 23:06:33 39° W 23:09:51 10° NNW visible
01 Jul ? 22:33:01 25° SSE 22:34:55 75° ENE 22:38:24 10° N visible
02 Jul ? 22:01:06 14° SE 22:03:25 28° ENE 22:06:26 10° N visible
02 Jul ? 23:34:58 13° WSW 23:36:26 17° W 23:38:46 10° NW visible
03 Jul ? 21:30:29 10° E 21:32:02 13° ENE 21:33:35 10° NE visible
03 Jul ? 23:03:02 24° SSW 23:04:39 41° W 23:07:58 10° NNW visible
04 Jul ? 22:31:06 25° SSE 22:32:58 70° ENE 22:36:27 10° N visible
05 Jul ? 21:59:08 14° ESE 22:01:26 27° ENE 22:04:24 10° NNE visible
05 Jul ? 23:33:00 14° WSW 23:34:25 18° W 23:36:51 10° NW visible
06 Jul ? 21:28:40 10° E 21:30:01 12° ENE 21:31:21 10° NE visible
06 Jul ? 23:01:01 26° SSW 23:02:35 44° W 23:05:56 10° NNW visible
07 Jul ? 22:29:02 25° SSE 22:30:52 66° ENE 22:34:19 10° N visible
08 Jul ? 21:57:02 14° ESE 21:59:17 25° ENE 22:02:12 10° NNE visible
08 Jul ? 23:30:54 15° WSW 23:32:15 19° W 23:34:46 10° NW visible
09 Jul ? 21:26:45 10° E 21:27:50 11° ENE 21:28:55 10° NE visible
09 Jul ? 22:58:53 27° SSW 23:00:23 47° W 23:03:45 10° NNW visible
